Wind_Speed
24 25 25 24 21 19 16 14 13 12 10 7 5 3 3 5 7 8 8 8 8 9 10 9 10 11 11 10 8 8 7 7 7 6 7 7 8 8 9 9 9 10 10 11 11 11 12 12 12
24 26 27 27 25 22 19 16 14 12 10 7 4 3 4 7 8 9 9 8 8 9 9 10 10 10 10 9 8 7 6 6 6 6 7 7 7 7 7 7 8 8 9 9 10 10 10 11 11
25 27 30 30 28 24 21 19 17 14 11 7 4 4 5 7 8 9 9 7 7 7 8 9 9 9 8 7 6 6 5 5 5 5 5 6 6 6 6 6 7 7 8 8 9 9 9 9 10
26 29 30 31 30 27 23 22 19 16 13 10 6 5 5 7 7 8 8 6 6 6 7 7 7 6 6 6 5 4 4 4 4 4 4 4 4 4 5 5 6 7 7 8 8 8 9 9 10
25 29 30 31 31 29 26 23 21 18 16 12 9 7 5 7 6 7 6 5 5 6 6 6 5 5 5 5 4 4 3 3 3 2 2 2 2 3 4 4 5 6 7 8 9 9 10 10 10
26 27 29 28 31 32 29 25 23 21 18 16 12 8 5 6 6 5 3 2 4 5 6 6 5 5 5 5 5 5 5 4 3 2 1 0 1 2 3 4 5 6 7 8 9 10 10 10 10
27 25 26 27 32 35 31 29 25 22 19 17 13 9 6 5 5 4 2 1 3 4 5 5 6 6 7 7 7 7 6 5 5 4 3 2 1 1 2 3 5 6 7 9 10 10 10 9 10
28 25 23 24 32 35 34 32 29 26 22 19 15 10 8 6 5 4 1 2 3 4 5 6 7 8 9 9 8 8 7 6 6 5 3 2 1 1 2 3 5 6 8 10 11 11 11 10 10
30 26 20 20 29 35 37 36 33 30 25 20 17 13 10 7 5 3 1 2 4 5 6 7 8 9 9 9 9 9 8 7 6 5 4 2 1 1 2 4 5 7 9 10 12 13 12 12 11
32 26 19 20 29 37 41 40 36 34 29 24 20 16 12 9 6 4 2 3 4 6 7 7 7 8 9 9 9 9 8 8 7 6 4 3 3 3 3 5 6 8 10 11 12 13 13 13 13
34 27 22 23 30 39 45 44 41 37 32 28 24 20 14 10 8 6 5 5 5 6 7 7 7 7 8 8 9 9 8 8 7 7 6 5 4 4 5 5 6 8 9 11 11 12 13 13 13
35 30 26 25 30 39 46 47 44 40 34 32 28 22 17 12 10 8 8 7 7 7 7 7 7 7 7 8 9 9 9 8 8 8 7 6 6 6 6 7 7 8 9 10 11 12 13 13 13
36 32 30 28 30 37 45 47 46 42 37 34 30 24 19 15 13 11 10 10 9 8 8 8 8 7 8 8 9 9 9 9 9 8 8 8 8 8 8 9 9 9 9 11 12 12 13 12 13
36 34 31 29 29 34 42 47 47 42 39 36 31 26 21 18 15 13 12 11 11 11 10 10 9 9 9 9 9 10 10 10 10 9 9 9 10 10 10 11 11 11 11 12 13 13 14 14 14
36 34 31 28 28 31 39 45 46 42 40 36 32 27 24 21 18 14 13 13 12 12 12 12 11 11 11 11 11 11 11 11 11 11 11 12 13 13 14 14 14 14 14 14 14 15 16 16 16
35 33 30 28 28 30 34 40 42 42 40 37 34 29 26 23 20 17 16 16 15 13 15 15 14 13 14 14 13 13 13 12 13 13 13 14 15 16 17 17 17 17 17 17 16 16 17 17 18
34 32 29 28 28 29 30 35 39 41 40 39 35 31 27 25 22 19 17 16 16 16 16 18 16 16 17 17 16 15 15 14 14 14 16 18 19 20 20 21 21 20 19 18 18 18 18 18 19
32 31 29 28 28 29 29 31 36 39 39 39 37 33 29 26 22 20 19 19 18 18 18 20 19 19 19 19 19 18 17 17 17 17 19 21 22 23 23 23 24 22 22 21 21 20 20 20 21
32 31 29 28 28 28 28 29 34 37 37 37 36 33 30 26 24 22 21 20 20 19 20 22 23 22 22 22 21 21 21 21 21 22 22 23 24 24 25 24 23 23 25 24 22 22 22 23 23
30 29 28 27 27 27 27 28 31 35 35 35 35 34 31 29 26 24 22 20 20 20 20 23 24 25 25 24 23 23 24 25 25 25 25 25 25 26 26 25 25 25 25 26 25 25 24 25 25
29 28 28 27 27 26 26 27 30 33 34 34 34 35 33 31 28 25 23 21 20 21 20 20 21 23 24 24 26 27 28 29 30 26 26 26 26 26 26 27 27 26 26 26 26 27 27 27 28
27 27 28 28 28 26 26 27 28 30 30 31 32 32 33 32 31 28 25 24 22 21 21 22 22 22 24 26 27 29 31 30 29 29 28 27 28 29 29 28 28 29 29 28 28 29 29 29 30
26 28 28 29 28 27 26 27 28 28 28 28 30 31 32 32 32 30 28 26 25 23 23 23 23 24 26 27 30 31 33 33 30 30 29 29 30 31 30 30 30 29 30 30 30 30 31 31 32
27 29 30 30 29 29 28 27 29 29 29 29 30 31 31 31 31 31 29 27 27 26 25 25 26 28 30 31 33 35 35 34 33 32 31 31 31 31 31 30 31 31 31 31 32 32 33 34 35
27 29 30 31 31 30 29 30 31 31 31 31 31 31 32 31 31 32 32 31 30 29 29 29 30 31 32 34 36 37 38 36 35 34 34 33 31 32 32 32 33 33 33 33 33 35 36 37 38
26 28 30 31 32 32 31 32 33 32 32 32 32 32 32 32 32 32 32 32 32 32 33 34 34 35 36 38 38 38 37 38 37 35 35 34 35 34 34 34 34 35 35 36 37 39 40 41 42
25 27 28 29 30 30 32 33 33 33 34 34 34 33 33 34 34 35 36 36 36 37 37 38 38 39 40 40 39 40 39 38 38 38 37 37 36 36 36 36 37 38 38 40 42 43 44 45 46
24 25 27 29 28 29 32 33 34 34 34 35 36 36 36 36 36 37 38 38 39 40 42 42 43 42 41 41 42 43 43 43 42 42 41 39 38 39 39 40 41 42 43 45 46 47 49 50 51
24 25 27 28 29 30 31 33 33 34 35 36 37 38 39 39 39 39 39 41 42 42 43 44 44 44 45 45 45 45 45 45 44 44 42 41 42 43 43 44 45 47 48 49 50 52 54 55 56
22 24 26 27 28 29 31 34 35 35 36 37 38 39 40 40 40 40 41 41 41 42 43 44 45 46 46 47 47 47 47 46 45 44 44 44 46 46 47 48 50 51 52 53 55 57 58 59 60
Wind_Direction
213 202 197 195 196 202 208 211 215 212 208 202 201 226 293 303 304 298 288 279 264 255 252 254 256 256 257 257 258 258 261 265 268 273 277 281 284 289 295 301 307 310 311 312 313 314 315 315 314
218 208 201 198 199 201 207 211 214 215 217 218 226 261 298 307 301 300 294 281 265 253 247 247 250 251 249 249 251 254 258 262 268 274 279 281 283 288 295 303 310 313 314 315 316 316 315 314 314
224 216 207 201 200 202 207 211 215 217 224 228 241 277 304 313 304 303 298 283 262 248 242 242 244 243 239 240 242 244 248 254 262 270 276 282 289 295 302 312 318 319 319 317 318 317 315 315 314
231 221 214 206 200 201 208 213 215 220 226 233 246 283 303 318 319 314 305 283 255 237 231 231 230 227 225 224 224 226 229 236 247 258 270 283 296 309 320 325 327 325 322 319 317 315 314 314 312
235 227 220 212 203 202 206 213 218 224 230 237 246 269 300 317 328 324 308 278 244 226 219 213 208 206 204 203 202 194 190 195 205 221 248 281 311 332 340 341 338 331 324 319 316 314 314 314 311
238 235 229 218 206 204 207 213 220 227 235 241 247 256 287 313 325 329 317 268 227 212 207 200 187 181 176 170 162 154 150 150 154 159 162 88 5 6 360 350 340 328 320 316 316 316 317 316 313
239 241 235 222 210 207 209 215 221 225 231 238 244 249 271 305 317 327 325 225 198 190 186 178 168 161 153 147 143 140 140 141 143 143 138 122 76 24 354 339 329 320 315 313 313 314 317 317 314
237 241 239 226 213 208 211 217 223 226 229 235 238 241 254 281 299 322 320 188 181 176 170 161 152 149 145 141 139 140 142 146 149 150 149 144 128 330 323 320 315 310 309 308 308 310 309 306 304
234 239 241 229 214 207 212 218 223 227 230 233 235 239 250 265 285 293 245 180 174 167 161 155 149 146 144 144 146 148 151 155 158 159 163 173 206 266 289 298 302 306 306 305 305 305 304 302 298
231 236 238 227 213 206 211 217 222 226 229 230 232 237 245 259 268 258 226 189 177 165 159 156 153 154 154 155 157 160 163 166 167 169 176 192 214 243 269 289 297 302 304 307 307 307 306 304 300
229 231 230 224 214 208 211 216 221 226 227 230 233 237 243 253 254 246 229 199 187 176 170 169 170 168 169 169 171 174 176 176 178 183 193 206 222 243 261 278 294 303 306 307 310 313 310 308 305
226 227 228 224 217 212 212 216 221 225 226 230 233 236 241 247 249 242 226 204 193 188 185 184 185 184 185 185 186 187 188 188 190 198 207 217 228 239 254 273 287 296 302 306 309 313 314 313 308
224 224 225 225 222 216 214 216 221 224 225 229 233 236 241 241 240 237 228 214 204 204 207 203 202 205 205 203 200 199 199 199 203 209 218 226 232 242 257 269 280 289 295 304 309 308 311 313 311
221 223 224 226 225 221 216 217 221 222 225 229 233 234 236 235 237 235 230 221 215 215 218 222 224 227 224 220 216 212 210 211 213 219 227 235 243 251 261 268 273 282 289 297 301 301 306 309 310
220 221 224 226 226 224 219 219 222 222 226 230 233 234 235 234 234 229 220 217 216 221 225 230 235 237 235 231 226 223 222 223 224 230 239 247 254 259 264 268 272 277 285 288 292 294 300 304 307
219 220 222 223 223 223 221 219 221 222 227 230 234 234 234 234 229 224 222 220 221 226 231 235 242 242 242 240 238 237 236 238 239 243 250 258 263 266 268 269 271 276 280 282 286 290 295 300 302
217 217 218 220 220 222 221 218 219 222 226 229 232 233 232 232 228 225 227 225 227 232 236 238 243 244 247 249 245 246 248 251 255 259 264 268 271 273 275 274 273 276 278 279 283 284 289 293 294
215 214 215 217 218 220 220 216 217 222 226 229 231 230 229 231 230 227 226 230 232 236 239 242 244 248 250 254 255 256 257 259 263 268 274 275 275 277 277 278 277 278 277 278 282 282 284 286 287
215 212 212 214 218 219 221 218 217 222 226 229 231 231 228 229 231 228 225 228 233 241 245 246 246 249 251 253 258 260 262 264 269 271 272 276 277 279 279 281 279 281 280 281 283 281 281 283 284
214 211 209 212 217 219 222 222 221 224 228 230 231 231 229 227 229 229 228 232 237 244 248 248 248 247 250 254 259 263 266 269 268 269 274 278 281 283 281 284 282 281 281 281 281 280 279 281 283
212 210 208 211 216 219 221 225 226 227 231 233 232 232 230 230 229 228 229 235 238 242 246 248 249 253 254 256 261 265 269 272 271 274 279 281 284 289 289 286 284 282 284 285 281 279 279 280 281
209 208 207 210 215 218 219 221 226 226 227 229 229 229 229 229 229 231 234 238 241 242 243 247 252 259 264 266 268 270 273 276 279 281 286 288 287 289 287 286 285 283 284 285 283 280 279 281 282
205 206 205 209 213 216 218 220 221 221 222 223 223 224 226 227 229 233 236 239 243 245 246 251 256 263 268 270 276 277 276 276 279 289 293 292 292 291 287 287 284 283 284 284 282 281 281 283 283
203 206 206 208 212 215 217 219 216 218 219 221 221 222 223 225 228 232 236 241 245 247 249 254 259 265 269 272 274 275 276 279 284 291 293 294 293 292 289 286 285 285 284 283 283 283 284 284 284
204 206 207 209 212 215 218 220 217 217 219 221 222 223 225 226 229 233 237 241 246 249 251 256 261 265 269 271 273 275 280 282 286 290 293 295 292 292 290 288 287 286 286 284 284 285 286 285 286
204 207 209 212 215 217 219 222 220 220 222 225 227 229 231 232 235 239 241 245 249 252 255 259 262 266 269 272 275 279 283 285 289 292 294 293 292 290 287 288 287 287 288 287 286 288 287 287 287
205 208 210 215 218 221 223 226 225 224 226 229 233 236 239 241 243 246 249 251 254 257 259 261 264 267 269 271 274 278 283 286 289 292 292 291 290 288 287 287 287 288 288 287 288 289 289 289 289
208 211 213 216 219 223 227 230 232 231 233 234 238 242 245 247 250 253 255 257 259 261 262 263 265 268 269 272 276 280 282 284 286 288 290 289 288 288 289 289 287 288 288 289 289 289 290 290 290
210 214 218 220 223 226 231 234 237 240 241 242 244 246 250 254 257 259 260 262 264 264 264 264 266 267 269 272 275 278 279 281 283 285 286 285 286 287 288 287 288 289 290 291 290 290 291 290 290
216 220 223 226 228 231 235 239 240 245 247 249 251 253 255 259 261 263 264 265 265 266 265 265 266 268 269 271 274 276 278 279 279 280 280 282 285 286 286 288 289 289 289 289 289 289 290 290 289
Height
5869 5872 5874 5877 5880 5882 5882 5883 5883 5884 5884 5885 5886 5887 5888 5889 5890 5893 5891 5889 5889 5890 5890 5891 5892 5893 5893 5893 5894 5895 5896 5897 5899 5900 5901 5902 5903 5903 5904 5904 5904 5904 5904 5904 5904 5904 5904 5904 5904
5866 5869 5872 5874 5877 5878 5880 5881 5882 5882 5883 5884 5885 5886 5886 5887 5887 5888 5888 5887 5887 5888 5888 5889 5890 5891 5892 5892 5893 5894 5895 5896 5897 5898 5899 5900 5901 5902 5903 5903 5903 5903 5903 5903 5903 5903 5903 5903 5903
5863 5865 5868 5871 5873 5876 5878 5879 5880 5880 5882 5883 5884 5884 5885 5885 5886 5886 5886 5886 5886 5886 5887 5888 5889 5889 5890 5891 5892 5893 5894 5895 5896 5897 5898 5898 5899 5900 5901 5901 5901 5901 5901 5901 5901 5902 5902 5902 5902
5860 5862 5865 5868 5871 5873 5874 5876 5877 5878 5880 5881 5882 5883 5884 5884 5884 5885 5884 5884 5885 5885 5886 5887 5887 5888 5889 5890 5891 5892 5893 5894 5895 5896 5896 5897 5898 5899 5899 5899 5899 5899 5899 5899 5899 5900 5900 5900 5900
5856 5858 5861 5864 5868 5871 5872 5873 5874 5876 5877 5879 5881 5881 5882 5883 5883 5883 5883 5883 5884 5885 5885 5886 5886 5887 5888 5889 5890 5891 5892 5893 5894 5895 5896 5896 5897 5898 5898 5898 5898 5897 5897 5896 5896 5897 5898 5898 5898
5852 5855 5858 5861 5866 5868 5869 5870 5871 5873 5875 5876 5879 5880 5881 5881 5882 5882 5882 5883 5883 5884 5885 5885 5886 5887 5888 5889 5890 5891 5892 5893 5893 5894 5895 5896 5896 5896 5896 5896 5896 5896 5895 5894 5894 5895 5895 5896 5896
5848 5851 5854 5859 5862 5865 5867 5867 5869 5870 5872 5875 5877 5879 5879 5880 5881 5881 5882 5882 5883 5884 5884 5885 5885 5886 5887 5888 5889 5890 5891 5892 5893 5894 5895 5895 5895 5895 5895 5895 5895 5894 5893 5893 5892 5892 5893 5893 5893
5843 5847 5850 5854 5858 5862 5864 5864 5866 5868 5870 5873 5875 5877 5878 5879 5880 5880 5881 5882 5883 5883 5884 5885 5885 5886 5887 5888 5889 5890 5891 5892 5893 5894 5894 5894 5894 5894 5894 5894 5894 5893 5892 5891 5890 5890 5890 5890 5890
5839 5844 5847 5850 5854 5859 5860 5860 5862 5864 5867 5870 5872 5874 5876 5877 5879 5880 5881 5882 5883 5883 5884 5885 5886 5887 5887 5888 5889 5890 5891 5892 5893 5893 5893 5894 5893 5893 5893 5893 5892 5891 5890 5889 5888 5888 5888 5888 5887
5834 5839 5844 5846 5849 5853 5853 5855 5857 5860 5863 5867 5870 5871 5874 5876 5877 5879 5880 5881 5883 5883 5885 5886 5887 5887 5888 5889 5889 5890 5891 5891 5892 5893 5893 5893 5893 5892 5892 5892 5891 5890 5888 5887 5886 5885 5885 5885 5884
5829 5835 5838 5840 5842 5845 5847 5849 5852 5855 5859 5863 5866 5869 5872 5874 5876 5878 5879 5881 5882 5884 5885 5886 5887 5888 5888 5889 5889 5890 5891 5891 5892 5892 5892 5892 5892 5891 5891 5890 5889 5888 5887 5885 5884 5883 5882 5882 5881
5823 5828 5831 5834 5836 5838 5841 5843 5847 5850 5856 5859 5863 5866 5869 5872 5874 5876 5878 5880 5882 5884 5885 5886 5887 5887 5888 5889 5889 5889 5890 5890 5891 5891 5891 5890 5890 5890 5889 5888 5887 5886 5885 5883 5882 5881 5880 5879 5878
5817 5821 5824 5828 5830 5833 5836 5839 5842 5846 5852 5855 5859 5863 5867 5870 5872 5875 5877 5879 5881 5883 5884 5885 5886 5887 5888 5888 5889 5889 5889 5889 5890 5890 5889 5889 5889 5888 5887 5887 5885 5884 5883 5881 5880 5878 5877 5876 5875
5810 5815 5819 5823 5825 5828 5831 5835 5838 5844 5848 5851 5856 5861 5864 5867 5869 5872 5875 5877 5880 5882 5883 5884 5885 5886 5887 5887 5888 5888 5888 5888 5888 5888 5888 5887 5887 5886 5885 5884 5883 5882 5881 5879 5878 5876 5875 5873 5872
5805 5811 5815 5819 5821 5824 5827 5831 5835 5841 5844 5848 5852 5857 5861 5864 5867 5870 5873 5875 5878 5880 5882 5883 5884 5884 5885 5885 5886 5886 5886 5886 5886 5886 5885 5885 5884 5884 5883 5881 5880 5879 5878 5876 5875 5873 5872 5870 5868
5800 5806 5811 5815 5817 5820 5825 5828 5833 5837 5840 5844 5848 5853 5857 5861 5865 5867 5870 5872 5875 5877 5879 5881 5882 5882 5882 5883 5883 5884 5883 5883 5883 5883 5882 5882 5881 5880 5879 5878 5876 5875 5874 5872 5871 5870 5869 5867 5865
5796 5802 5806 5810 5813 5816 5820 5825 5829 5832 5836 5840 5844 5849 5854 5858 5861 5865 5867 5870 5872 5874 5876 5878 5879 5879 5880 5880 5880 5880 5880 5880 5880 5880 5879 5878 5877 5876 5875 5873 5872 5870 5869 5868 5867 5866 5865 5863 5862
5791 5796 5801 5805 5809 5813 5817 5822 5825 5827 5831 5836 5840 5845 5849 5854 5858 5862 5864 5866 5868 5870 5872 5873 5875 5876 5876 5876 5877 5877 5877 5876 5876 5875 5874 5873 5872 5870 5869 5867 5866 5865 5864 5863 5862 5861 5860 5859 5858
5786 5792 5797 5802 5805 5809 5813 5818 5821 5824 5828 5832 5836 5841 5846 5850 5854 5857 5860 5862 5864 5866 5867 5869 5870 5871 5871 5872 5872 5872 5872 5871 5870 5869 5868 5866 5864 5863 5863 5861 5860 5859 5858 5857 5856 5855 5854 5853 5852
5782 5788 5794 5798 5801 5806 5810 5814 5818 5821 5824 5828 5832 5837 5841 5845 5848 5852 5855 5857 5859 5861 5862 5863 5864 5865 5865 5865 5866 5865 5865 5864 5863 5861 5860 5859 5858 5857 5856 5854 5854 5853 5852 5851 5850 5849 5848 5847 5846
5778 5784 5790 5794 5797 5802 5807 5811 5814 5817 5820 5824 5827 5832 5836 5840 5844 5848 5850 5853 5855 5856 5856 5858 5859 5859 5859 5860 5860 5860 5859 5858 5856 5855 5854 5853 5852 5851 5850 5848 5847 5846 5846 5844 5843 5842 5841 5840 5839
5775 5781 5785 5790 5794 5798 5804 5807 5810 5813 5817 5820 5823 5828 5832 5836 5840 5843 5846 5848 5850 5851 5852 5853 5854 5854 5855 5854 5854 5853 5852 5851 5850 5848 5847 5846 5845 5844 5842 5841 5839 5838 5838 5837 5836 5835 5834 5832 5831
5772 5776 5782 5786 5791 5796 5800 5804 5807 5810 5813 5817 5820 5824 5828 5832 5835 5838 5841 5843 5845 5846 5848 5849 5849 5849 5849 5848 5847 5847 5845 5844 5843 5841 5840 5839 5838 5836 5834 5834 5832 5831 5830 5829 5828 5827 5825 5824 5822
5768 5773 5779 5783 5788 5793 5797 5801 5804 5807 5811 5814 5817 5821 5824 5828 5831 5834 5836 5838 5840 5841 5842 5843 5843 5843 5843 5842 5841 5840 5837 5836 5834 5833 5832 5831 5830 5828 5827 5825 5824 5823 5822 5821 5820 5818 5817 5815 5813
5766 5771 5776 5781 5785 5790 5793 5797 5801 5804 5807 5811 5814 5817 5820 5823 5826 5828 5830 5832 5833 5834 5835 5835 5836 5836 5835 5834 5833 5831 5829 5827 5826 5824 5824 5823 5822 5821 5820 5818 5816 5815 5813 5812 5811 5809 5807 5805 5803
5763 5769 5774 5779 5782 5786 5790 5792 5797 5800 5803 5807 5810 5812 5815 5818 5820 5822 5823 5825 5826 5827 5827 5827 5828 5827 5827 5825 5824 5822 5821 5819 5816 5815 5815 5815 5814 5813 5812 5810 5808 5806 5805 5803 5801 5799 5797 5795 5793
5762 5766 5771 5775 5778 5782 5785 5788 5792 5795 5799 5802 5805 5807 5809 5811 5813 5815 5817 5818 5819 5820 5820 5820 5820 5819 5818 5817 5816 5814 5812 5810 5808 5807 5807 5806 5805 5804 5802 5800 5798 5797 5795 5794 5792 5789 5787 5784 5781
5761 5764 5768 5772 5775 5778 5781 5784 5787 5790 5793 5796 5799 5801 5803 5805 5807 5808 5809 5810 5811 5812 5812 5812 5811 5810 5809 5808 5807 5806 5803 5802 5801 5800 5799 5797 5795 5794 5792 5791 5789 5787 5785 5783 5780 5777 5774 5771 5768
5759 5762 5765 5768 5771 5774 5777 5781 5782 5785 5787 5789 5791 5793 5795 5797 5799 5800 5801 5802 5802 5802 5803 5802 5802 5801 5800 5799 5798 5797 5795 5794 5792 5790 5789 5788 5786 5784 5782 5780 5778 5775 5773 5770 5767 5764 5761 5757 5753
5756 5759 5762 5765 5767 5770 5772 5777 5776 5778 5780 5782 5784 5785 5787 5789 5790 5791 5792 5792 5792 5792 5792 5792 5791 5791 5790 5789 5788 5786 5784 5783 5782 5780 5778 5777 5775 5773 5771 5769 5766 5763 5760 5757 5754 5750 5746 5742 5738